| time (UTC) | temp F | wind direction | speed MPH | gust MPH | rain 1hr in | rain 24hr in | rain mn in | humidity % | barometer mb |
| 20260902051542 | 60 | 229 | 0.0 | 0.0 | 0.00 | 0.00 | 0.00 | 12 | 1004.9 |
| 20260902050042 | 60 | 229 | 0.0 | 0.0 | 0.00 | 0.00 | 0.00 | 14 | 1005.0 |
| 20260902044531 | 60 | 229 | 0.0 | 0.0 | 0.00 | 0.00 | 0.00 | 15 | 1005.1 |
| 20260902043026 | 60 | 229 | 0.0 | 0.0 | 0.00 | 0.00 | 0.00 | 17 | 1005.1 |
| 20260902041522 | 60 | 229 | 0.0 | 0.0 | 0.00 | 0.00 | 0.00 | 21 | 1005.2 |
| 20260902040018 | 60 | 229 | 0.0 | 0.0 | 0.00 | 0.00 | 0.00 | 27 | 1005.2 |
| 20260902034514 | 60 | 229 | 0.0 | 0.0 | 0.00 | 0.00 | 0.00 | 23 | 1005.1 |
| 20260902033008 | 61 | 229 | 0.0 | 0.0 | 0.00 | 0.00 | 0.00 | 20 | 1004.9 |
| 20260902031504 | 61 | 120 | 0.0 | 0.0 | 0.00 | 0.00 | 0.00 | 31 | 1005.1 |
| 20260902024608 | 62 | 120 | 0.0 | 0.0 | 0.00 | 0.00 | 0.00 | 44 | 1004.9 |
| 20260902023056 | 62 | 120 | 0.0 | 0.0 | 0.00 | 0.00 | 0.00 | 44 | 1005.1 |
| 20260902021553 | 62 | 120 | 0.0 | 0.0 | 0.00 | 0.00 | 0.00 | 43 | 1005.2 |
| 20260902020045 | 62 | 120 | 0.0 | 0.0 | 0.00 | 0.00 | 0.00 | 45 | 1005.2 |
| 20260902014543 | 62 | 120 | 0.0 | 0.0 | 0.00 | 0.00 | 0.00 | 35 | 1005.3 |
| 20260902013039 | 62 | 120 | 0.0 | 0.0 | 0.00 | 0.00 | 0.00 | 38 | 1005.2 |
| 20260902011533 | 62 | 120 | 0.0 | 0.0 | 0.00 | 0.00 | 0.00 | 32 | 1005.4 |
| 20260902010029 | 62 | 120 | 0.0 | 0.0 | 0.00 | 0.00 | 0.00 | 34 | 1005.3 |
| 20260902004527 | 63 | 120 | 0.0 | 0.0 | 0.00 | 0.00 | 0.00 | 30 | 1005.3 |
| 20260902003028 | 62 | 120 | 0.0 | 0.0 | 0.00 | 0.00 | 0.00 | 30 | 1005.4 |
| 20260902001515 | 62 | 120 | 0.0 | 0.0 | 0.00 | 0.00 | 0.00 | 31 | 1005.5 |
| 20260902000013 | 62 | 120 | 0.0 | 0.0 | 0.00 | 0.00 | 0.00 | 30 | 1005.3 |
| 20260901234506 | 62 | 120 | 0.0 | 0.0 | 0.00 | 0.00 | 0.00 | 31 | 1005.4 |
| 20260901233002 | 62 | 120 | 0.0 | 0.0 | 0.00 | 0.00 | 0.00 | 40 | 1005.4 |
| 20260901231600 | 62 | 44 | 0.0 | 0.0 | 0.00 | 0.00 | 0.00 | 35 | 1005.4 |
| 20260901230054 | 62 | 44 | 0.0 | 0.0 | 0.00 | 0.00 | 0.00 | 31 | 1005.4 |
| 20260901224549 | 62 | 44 | 0.0 | 1.0 | 0.00 | 0.00 | 0.00 | 35 | 1005.3 |
| 20260901223048 | 62 | 44 | 0.0 | 0.0 | 0.00 | 0.00 | 0.00 | 29 | 1005.4 |
| 20260901221540 | 61 | 44 | 0.0 | 0.0 | 0.00 | 0.00 | 0.00 | 28 | 1005.4 |
| 20260901220039 | 62 | 44 | 0.0 | 0.0 | 0.00 | 0.00 | 0.00 | 28 | 1005.5 |
| 20260901214534 | 62 | 44 | 0.0 | 0.0 | 0.00 | 0.00 | 0.00 | 27 | 1005.5 |
| 20260901213039 | 62 | 42 | 0.0 | 0.0 | 0.00 | 0.00 | 0.00 | 29 | 1005.6 |
| 20260901211523 | 61 | 42 | 0.0 | 0.0 | 0.00 | 0.00 | 0.00 | 27 | 1005.8 |
| 20260901210019 | 61 | 42 | 0.0 | 0.0 | 0.00 | 0.00 | 0.00 | 25 | 1005.8 |
| 20260901204515 | 61 | 42 | 0.0 | 1.0 | 0.00 | 0.00 | 0.00 | 29 | 1005.9 |
| 20260901203009 | 62 | 278 | 0.0 | 1.0 | 0.00 | 0.00 | 0.00 | 38 | 1005.9 |
| 20260901201505 | 62 | 277 | 0.0 | 1.0 | 0.00 | 0.00 | 0.00 | 44 | 1005.9 |
| 20260901200100 | 63 | 264 | 0.0 | 1.0 | 0.00 | 0.00 | 0.00 | 50 | 1005.9 |
| 20260901194559 | 65 | 264 | 0.0 | 1.0 | 0.00 | 0.00 | 0.00 | 58 | 1005.9 |
| 20260901193056 | 65 | 336 | 0.0 | 1.0 | 0.00 | 0.00 | 0.00 | 55 | 1005.9 |
| 20260901191547 | 65 | 193 | 0.0 | 0.0 | 0.00 | 0.00 | 0.00 | 56 | 1006.0 |
| 20260901190046 | 66 | 193 | 0.0 | 0.0 | 0.00 | 0.00 | 0.00 | 60 | 1005.9 |
| 20260901184545 | 67 | 193 | 0.0 | 0.0 | 0.00 | 0.00 | 0.00 | 59 | 1005.8 |
| 20260901183036 | 66 | 146 | 0.0 | 1.0 | 0.00 | 0.00 | 0.00 | 52 | 1005.9 |
| 20260901181533 | 65 | 145 | 0.0 | 0.0 | 0.00 | 0.00 | 0.00 | 46 | 1005.9 |
| 20260901180025 | 64 | 148 | 0.0 | 0.0 | 0.00 | 0.00 | 0.00 | 26 | 1005.9 |
| 20260901174520 | 62 | 148 | 0.0 | 1.0 | 0.00 | 0.00 | 0.00 | 12 | 1005.8 |
| 20260901173015 | 60 | 247 | 0.0 | 1.0 | 0.00 | 0.00 | 0.00 | 1 | 1005.9 |
| 20260901171512 | 59 | 248 | 0.0 | 0.0 | 0.00 | 0.00 | 0.00 | 1 | 1005.9 |
| 20260901170007 | 58 | 248 | 0.0 | 0.0 | 0.00 | 0.00 | 0.00 | 1 | 1005.9 |
| 20260901164502 | 58 | 247 | 0.0 | 0.0 | 0.00 | 0.00 | 0.00 | 1 | 1005.8 |
| 20260901163058 | 58 | 248 | 0.0 | 0.0 | 0.00 | 0.00 | 0.00 | 1 | 1005.9 |
| 20260901161554 | 58 | 247 | 0.0 | 0.0 | 0.00 | 0.00 | 0.00 | 1 | 1005.9 |
| 20260901160048 | 57 | 248 | 0.0 | 0.0 | 0.00 | 0.00 | 0.00 | 1 | 1006.0 |
| 20260901154544 | 57 | 248 | 0.0 | 0.0 | 0.00 | 0.00 | 0.00 | 1 | 1005.9 |
| 20260901153042 | 56 | 248 | 0.0 | 0.0 | 0.00 | 0.00 | 0.00 | 1 | 1005.9 |
| 20260901151535 | 55 | 247 | 0.0 | 0.0 | 0.00 | 0.00 | 0.00 | 1 | 1005.7 |
| 20260901150032 | 55 | 248 | 0.0 | 0.0 | 0.00 | 0.00 | 0.00 | 1 | 1005.7 |
| 20260901144529 | 0 | 0.0 | 0.0 | 0.00 | 0.00 | 0.00 | 1005.5 | ||
| 20260901143022 | 0 | 0.0 | 0.0 | 0.00 | 0.00 | 0.00 | 1005.4 | ||
| 20260901141532 | 0 | 0.0 | 0.0 | 0.00 | 0.00 | 0.00 | 1005.3 | ||
| 20260901140013 | 0 | 0.0 | 0.0 | 0.00 | 0.00 | 0.00 | 1005.3 | ||
| 20260901134511 | 0 | 0.0 | 0.0 | 0.00 | 0.00 | 0.00 | 1005.1 | ||
| 20260901133009 | 0 | 0.0 | 0.0 | 0.00 | 0.00 | 0.00 | 1005.0 | ||
| 20260901131604 | 0 | 0.0 | 0.0 | 0.00 | 0.00 | 0.00 | 1005.0 | ||
| 20260901130055 | 0 | 0.0 | 0.0 | 0.00 | 0.00 | 0.00 | 1004.8 | ||
| 20260901124555 | 0 | 0.0 | 0.0 | 0.00 | 0.00 | 0.00 | 1005.0 | ||
| 20260901123047 | 53 | 4 | 0.0 | 1.0 | 0.00 | 0.00 | 0.00 | 1 | 1005.0 |
| 20260901121545 | 53 | 1 | 0.0 | 1.0 | 0.00 | 0.00 | 0.00 | 1 | 1005.0 |
| 20260901120037 | 53 | 251 | 0.0 | 0.0 | 0.00 | 0.00 | 0.00 | 1 | 1005.1 |
| 20260901114545 | 54 | 251 | 0.0 | 1.0 | 0.00 | 0.00 | 0.00 | 1 | 1005.2 |
| 20260901113028 | 54 | 251 | 0.0 | 0.0 | 0.00 | 0.00 | 0.00 | 1 | 1005.3 |
| 20260901111524 | 55 | 251 | 0.0 | 1.0 | 0.00 | 0.00 | 0.00 | 1 | 1005.2 |
| 20260901110020 | 55 | 330 | 0.0 | 2.0 | 0.00 | 0.00 | 0.00 | 1 | 1005.3 |
| 20260901104515 | 54 | 229 | 0.0 | 0.0 | 0.00 | 0.00 | 0.00 | 1 | 1005.2 |
| 20260901103011 | 54 | 229 | 0.0 | 0.0 | 0.00 | 0.00 | 0.00 | 1 | 1005.3 |
| 20260901101506 | 54 | 229 | 0.0 | 0.0 | 0.00 | 0.00 | 0.00 | 1 | 1005.3 |
| 20260901100001 | 54 | 229 | 0.0 | 0.0 | 0.00 | 0.00 | 0.00 | 1 | 1005.4 |
| 20260901094557 | 54 | 229 | 0.0 | 0.0 | 0.00 | 0.00 | 0.00 | 1 | 1005.2 |
| 20260901093053 | 54 | 229 | 0.0 | 0.0 | 0.00 | 0.00 | 0.00 | 1 | 1005.3 |
| 20260901091553 | 54 | 229 | 0.0 | 0.0 | 0.00 | 0.00 | 0.00 | 1 | 1005.2 |
| 20260901090044 | 54 | 229 | 0.0 | 0.0 | 0.00 | 0.00 | 0.00 | 1 | 1005.2 |
| 20260901084539 | 54 | 229 | 0.0 | 0.0 | 0.00 | 0.00 | 0.00 | 1 | 1005.2 |
| 20260901083036 | 55 | 229 | 0.0 | 0.0 | 0.00 | 0.00 | 0.00 | 1 | 1005.1 |
| 20260901081538 | 54 | 229 | 0.0 | 0.0 | 0.00 | 0.00 | 0.00 | 1 | 1005.2 |
| 20260901080030 | 54 | 229 | 0.0 | 0.0 | 0.00 | 0.00 | 0.00 | 1 | 1005.1 |
| 20260901074522 | 54 | 229 | 0.0 | 0.0 | 0.00 | 0.00 | 0.00 | 1 | 1005.0 |
| 20260901073019 | 55 | 229 | 0.0 | 0.0 | 0.00 | 0.00 | 0.00 | 1 | 1005.1 |
| 20260901071514 | 55 | 229 | 0.0 | 0.0 | 0.00 | 0.00 | 0.00 | 1 | 1005.1 |
| 20260901070009 | 55 | 229 | 0.0 | 0.0 | 0.00 | 0.00 | 0.00 | 1 | 1005.1 |
| 20260901064505 | 55 | 229 | 0.0 | 0.0 | 0.00 | 0.00 | 0.00 | 1 | 1005.2 |
| 20260901063002 | 55 | 229 | 0.0 | 0.0 | 0.00 | 0.00 | 0.00 | 1 | 1005.3 |
| 20260901061557 | 55 | 229 | 0.0 | 0.0 | 0.00 | 0.00 | 0.00 | 1 | 1005.4 |
| 20260901060052 | 56 | 229 | 0.0 | 0.0 | 0.00 | 0.00 | 0.00 | 2 | 1005.5 |
| 20260901054551 | 56 | 229 | 0.0 | 0.0 | 0.00 | 0.00 | 0.00 | 2 | 1005.7 |
| 20260901053051 | 56 | 229 | 0.0 | 0.0 | 0.00 | 0.00 | 0.00 | 2 | 1005.7 |